This demonstration page uses our WeatherBlox Daily Observations layout. Learn more.

Left ArrowRight Arrow

40.92945, -100.16068

Hourly Observations for October 10, 2021

Temp ( °F °C ) Dew Point ( °F °C ) Humidity (%) Winds ( mph kmh ) Pressure ( in mb ) Visibility ( mi km ) Precip ( " mm )
12:15 am 00:15 Clear 55 12.8 44 6.5 66 66 NW 8 13 29.71 1006 10 16 N/A
12:35 am 00:35 Partly Cloudy 52 11.2 44 6.7 74 74 WNW 9 15 29.73 1007 10 16 N/A
12:55 am 00:55 Mostly Cloudy 54 12.4 45 7.1 70 70 WNW 8 13 29.73 1007 10 16 N/A
1:15 am 01:15 Mostly Cloudy 55 12.7 45 7.3 70 70 WNW 8 13 29.74 1007 10 16 N/A
1:35 am 01:35 Partly Cloudy 56 13.6 46 7.5 67 67 WNW 10 17 29.73 1007 10 16 N/A
1:55 am 01:55 Partly Cloudy 55 13 46 7.5 69 69 WNW 10 17 29.73 1007 10 16 N/A
2:15 am 02:15 Partly Cloudy 55 12.7 46 7.5 71 71 WNW 12 19 29.75 1007 10 16 N/A
2:35 am 02:35 Clear 55 12.6 45 7.4 71 71 WNW 14 22 29.75 1007 10 16 N/A
2:55 am 02:55 Clear 56 13.1 45 7.3 68 68 WNW 14 22 29.74 1007 10 16 N/A
3:15 am 03:15 Clear 55 13 45 7.2 68 68 WNW 13 20 29.74 1007 10 16 N/A
3:35 am 03:35 Clear 54 12.1 45 7.2 72 72 WNW 12 19 29.75 1008 10 16 N/A
3:55 am 03:55 Clear 54 12 45 7.2 73 73 WNW 14 22 29.73 1007 10 16 N/A
4:15 am 04:15 Clear 54 12 45 7.1 72 72 WNW 16 26 29.73 1007 10 16 N/A
4:35 am 04:35 Clear 54 12.2 45 7.1 71 71 WNW 20 31 29.73 1007 10 16 N/A
4:55 am 04:55 Clear 53 11.9 45 7.1 73 73 WNW 15 24 29.72 1007 10 16 N/A
5:15 am 05:15 Clear 52 11.2 45 7 76 76 WNW 10 17 29.75 1007 10 16 N/A
5:35 am 05:35 Clear 51 10.3 45 7 80 80 WNW 8 13 29.77 1008 10 16 N/A
5:55 am 05:55 Clear 50 9.9 45 7 82 82 W 9 15 29.79 1009 10 16 N/A
6:15 am 06:15 Clear 51 10.6 45 7.2 80 80 WNW 7 11 29.79 1009 10 16 N/A
6:35 am 06:35 Clear 50 9.9 45 7 82 82 WNW 8 13 29.79 1009 10 16 N/A
6:55 am 06:55 Clear 48 9 44 6.8 86 86 WNW 6 9 29.80 1009 10 16 N/A
7:15 am 07:15 Clear 48 8.8 45 7 89 89 WNW 9 15 29.80 1009 10 16 N/A
7:35 am 07:35 Clear 49 9.3 45 7.3 87 87 WNW 12 19 29.80 1009 10 16 N/A
7:55 am 07:55 Sunny 49 9.6 46 7.5 87 87 WNW 12 19 29.80 1009 10 16 N/A
8:15 am 08:15 Sunny 50 9.8 46 7.6 86 86 NW 12 19 29.79 1009 10 16 N/A
8:35 am 08:35 Sunny 51 10.3 46 7.7 84 84 NW 13 20 29.79 1009 10 16 N/A
8:55 am 08:55 Sunny 52 11.1 47 8.1 82 82 WNW 14 22 29.78 1009 10 16 N/A
9:15 am 09:15 Sunny 54 12 47 8.2 78 78 NW 17 28 29.78 1009 10 16 N/A
9:35 am 09:35 Sunny 55 12.8 47 8.3 74 74 NW 21 33 29.78 1008 10 16 N/A
9:55 am 09:55 Sunny 56 13.3 46 8 71 71 NW 21 33 29.76 1008 10 16 N/A
10:15 am 10:15 Sunny 58 14.5 43 6.1 57 57 NW 24 39 29.75 1007 10 16 N/A
10:35 am 10:35 Sunny 59 15.1 42 5.4 53 53 NW 22 35 29.76 1008 10 16 N/A
10:55 am 10:55 Sunny 61 15.9 42 5.7 51 51 NW 20 31 29.76 1008 10 16 N/A
11:15 am 11:15 Sunny 61 16.3 41 5 47 47 NW 20 31 29.75 1008 10 16 N/A
11:35 am 11:35 Sunny 63 17.3 40 4.5 43 43 NW 20 31 29.75 1007 10 16 N/A
11:55 am 11:55 Sunny 64 17.5 38 3.5 40 40 NNW 17 28 29.74 1007 10 16 N/A
12:15 pm 12:15 Sunny 64 17.8 37 2.8 37 37 NNW 18 30 29.75 1008 10 16 N/A
12:55 pm 12:55 Sunny 66 18.9 38 3.2 35 35 NNW 15 24 29.73 1007 10 16 N/A
1:15 pm 13:15 Sunny 67 19.5 39 3.9 36 36 N 16 26 29.73 1007 10 16 N/A
1:35 pm 13:35 Sunny 67 19.6 38 3.4 34 34 NNW 15 24 29.72 1006 10 16 N/A
1:55 pm 13:55 Sunny 68 20.1 38 3.6 34 34 N 15 24 29.69 1005 10 16 N/A
2:15 pm 14:15 Sunny 69 20.3 38 3.6 33 33 N 16 26 29.69 1005 10 16 N/A
2:35 pm 14:35 Sunny 67 19.7 38 3.3 34 34 NNW 16 26 29.70 1006 10 16 N/A
2:55 pm 14:55 Sunny 67 19.3 36 2.3 32 32 N 13 20 29.70 1006 10 16 N/A
3:15 pm 15:15 Sunny 67 19.5 38 3.3 34 34 N 12 19 29.69 1005 10 16 N/A
3:35 pm 15:35 Sunny 69 20.5 39 3.9 34 34 NNW 10 17 29.67 1005 10 16 N/A
3:55 pm 15:55 Sunny 68 20 38 3.3 33 33 N 9 15 29.68 1005 10 16 N/A
4:15 pm 16:15 Sunny 67 19.5 38 3.1 34 34 NNW 10 17 29.69 1005 10 16 N/A
4:35 pm 16:35 Sunny 67 19.3 39 3.8 36 36 N 12 19 29.68 1005 10 16 N/A
4:55 pm 16:55 Sunny 67 19.3 39 3.7 36 36 N 9 15 29.68 1005 10 16 N/A
5:15 pm 17:15 Sunny 67 19.5 40 4.4 37 37 N 10 17 29.68 1005 10 16 N/A
5:35 pm 17:35 Sunny 67 19.4 39 4.1 37 37 N 9 15 29.69 1005 10 16 N/A
5:55 pm 17:55 Sunny 67 19.4 41 5.1 39 39 NNE 8 13 29.70 1006 10 16 N/A
6:15 pm 18:15 Sunny 65 18.5 41 4.9 41 41 NNE 7 11 29.71 1006 10 16 N/A
6:35 pm 18:35 Sunny 64 17.5 43 6.3 48 48 NE 5 7 29.71 1006 10 16 N/A
6:55 pm 18:55 Sunny 61 16.2 44 6.5 53 53 ENE 3 6 29.74 1007 10 16 N/A
7:15 pm 19:15 Clear 60 15.7 42 5.5 51 51 E 3 6 29.75 1007 10 16 N/A
7:35 pm 19:35 Clear 60 15.3 42 5.5 52 52 ENE 3 6 29.75 1008 10 16 N/A
7:55 pm 19:55 Clear 58 14.2 42 5.6 56 56 E 5 7 29.76 1008 10 16 N/A
8:15 pm 20:15 Clear 56 13.3 42 5.8 61 61 N N/A 29.77 1008 10 16 N/A
8:35 pm 20:35 Clear 54 12.1 42 5.7 65 65 N N/A 29.78 1009 10 16 N/A
8:55 pm 20:55 Clear 51 10.5 43 6.1 74 74 N N/A 29.79 1009 10 16 N/A
9:15 pm 21:15 Clear 50 10 43 6 76 76 N N/A 29.79 1009 10 16 N/A
9:35 pm 21:35 Clear 47 8.5 42 5.3 81 81 WNW 5 7 29.79 1009 7 11 N/A
9:55 pm 21:55 Clear 46 8 42 5.3 83 83 NW 6 9 29.80 1009 7 11 N/A
10:15 pm 22:15 Clear 46 8 41 5 82 82 WNW 3 6 29.79 1009 10 16 N/A
10:35 pm 22:35 Clear 45 7.4 41 5.1 86 86 WNW 3 6 29.81 1009 7 11 N/A
10:55 pm 22:55 Clear 44 6.9 41 5 88 88 N N/A 29.81 1009 10 16 N/A
11:15 pm 23:15 Clear 45 7.1 41 5 87 87 N N/A 29.81 1009 10 16 N/A
11:35 pm 23:35 Clear 44 6.7 41 5.1 90 90 N N/A 29.80 1009 10 16 N/A
11:55 pm 23:55 Clear 42 5.7 40 4.2 90 90 WNW 5 7 29.81 1010 10 16 N/A

Powered by AerisWeather